Wind_Speed
18 17 14 14 13 15 17 11 9 9 12 15 17 17 17 16 15 15 15 15 14 13 13 13 14 16 16 16 16 17 16 15 14 14 13 13 13 13 14 14 14 13 12
19 17 13 11 13 14 17 16 24 10 13 14 18 19 18 18 18 17 16 16 16 15 14 14 14 15 16 17 17 19 18 17 16 15 15 14 14 14 13 14 15 13 13
20 18 12 10 12 14 17 19 8 14 14 14 17 19 19 20 20 20 18 17 17 15 15 15 15 15 16 16 17 18 18 18 18 17 16 15 16 15 14 14 14 14 15
20 18 11 11 14 18 16 11 13 16 13 20 17 19 20 20 20 21 20 19 18 17 16 14 15 15 16 16 16 18 19 18 18 18 17 17 16 17 16 15 15 17 17
22 18 12 14 22 21 12 20 22 17 20 22 21 19 21 22 22 21 19 19 19 18 18 17 17 16 16 17 16 17 19 19 18 18 18 18 18 18 18 18 17 18 18
22 20 17 19 18 18 19 21 22 21 21 22 21 21 22 22 22 21 19 17 18 17 17 17 18 18 17 18 19 20 19 20 19 19 20 20 20 19 19 19 19 20 21
19 18 18 18 19 19 20 21 21 22 23 22 21 22 22 21 22 20 19 18 16 15 16 18 19 17 17 17 18 19 20 21 22 22 23 22 22 21 21 21 20 21 23
18 17 17 18 20 20 20 20 21 22 23 22 22 22 22 22 21 20 19 18 18 18 18 19 18 17 19 19 20 21 19 21 21 21 21 25 26 25 25 24 23 23 24
18 17 17 18 19 20 20 20 20 20 21 21 22 21 20 20 20 20 20 21 21 22 22 22 23 25 26 26 26 24 24 22 22 21 21 23 22 26 32 30 28 25 26
19 18 18 18 18 19 20 20 21 22 22 21 20 20 20 20 21 23 24 24 26 27 28 30 31 33 34 34 32 29 29 29 30 28 29 28 26 27 30 32 36 31 27
22 19 20 20 20 19 20 20 21 21 22 21 21 22 23 23 25 27 29 29 31 33 35 37 38 40 40 39 37 35 34 33 36 36 36 33 32 32 33 28 30 25 31
22 22 22 22 22 22 23 23 23 24 24 24 26 27 28 29 31 32 34 35 37 38 40 40 41 42 42 41 39 37 36 36 37 37 38 40 39 37 36 37 31 27 27
23 24 25 23 24 26 27 27 28 28 28 29 30 31 31 32 33 34 36 36 37 37 38 40 41 42 42 42 42 41 38 37 37 38 38 37 39 40 34 32 33 31 23
24 26 26 26 27 30 31 31 31 31 32 32 33 33 34 33 35 35 37 37 37 38 39 39 40 40 41 41 41 41 41 39 37 37 38 38 36 36 33 29 30 30 30
25 25 26 28 31 33 34 33 33 33 34 33 33 33 34 33 34 36 37 39 41 41 41 41 42 42 43 44 44 44 44 43 42 40 39 39 39 36 33 32 31 29 32
25 26 27 30 32 33 35 34 33 34 33 32 33 34 36 37 39 40 41 42 43 43 44 44 46 47 49 49 51 51 51 50 48 46 45 44 40 38 35 36 34 32 34
25 27 28 31 33 35 36 35 35 35 35 37 39 40 41 42 43 44 45 44 44 45 47 48 50 52 51 50 52 52 54 57 57 54 51 49 48 44 37 36 37 36 36
29 30 32 33 35 37 36 38 39 40 41 41 43 44 46 46 48 50 51 52 52 53 54 54 55 56 57 57 58 60 60 60 58 58 58 54 52 50 49 41 38 38 38
32 34 35 35 36 38 40 41 43 44 46 48 49 49 49 50 52 54 54 53 55 58 60 62 63 64 65 65 63 59 57 55 59 55 53 52 55 56 49 50 44 42 42
36 36 37 38 41 43 44 45 46 47 49 51 52 53 54 55 57 59 58 60 61 61 63 66 67 68 69 66 60 60 55 51 51 53 55 56 54 55 56 54 52 47 45
40 42 42 43 44 46 47 48 50 50 51 53 54 55 58 59 59 61 62 61 63 65 63 64 66 62 58 51 49 48 50 53 56 59 57 56 58 57 56 54 55 53 50
44 45 47 46 47 48 50 52 53 55 56 56 58 59 59 58 58 60 62 63 62 60 57 51 44 44 43 41 45 45 46 50 52 59 57 54 52 53 51 51 52 54 53
49 48 49 50 51 52 54 55 57 58 58 57 59 61 60 59 56 57 58 54 52 47 44 43 40 41 41 44 46 49 50 49 50 48 46 45 45 45 45 45 47 50 53
52 52 52 54 56 57 58 60 59 58 58 57 56 57 58 58 58 54 52 45 42 43 46 45 47 46 47 46 46 48 49 46 45 44 43 41 41 43 40 42 43 46 49
53 53 54 56 59 61 61 58 56 55 54 53 55 55 54 53 52 49 46 43 44 50 52 53 54 48 49 49 49 48 49 50 47 43 43 36 34 33 34 40 42 43 45
55 55 56 57 58 57 55 54 53 53 52 51 54 54 51 49 47 45 41 49 55 56 56 56 56 51 52 57 49 48 47 48 44 41 38 34 34 34 31 31 36 42 44
Wind_Direction
312 316 312 306 295 304 309 315 310 318 325 325 328 332 336 337 337 333 332 332 329 324 319 316 314 312 310 305 303 300 300 298 298 296 292 290 286 284 289 293 297 295 288
310 310 307 302 302 302 300 299 301 308 312 322 326 329 332 332 332 329 326 323 322 320 319 312 307 307 306 305 304 302 301 300 298 296 293 289 286 285 284 289 291 290 282
307 304 296 293 291 294 302 297 294 316 305 321 328 327 326 326 326 325 322 318 316 317 317 310 307 300 300 304 302 300 300 301 300 299 294 293 290 287 287 285 285 285 274
300 292 291 288 283 280 281 302 306 306 299 313 316 314 317 318 320 320 319 315 314 312 309 305 302 303 300 296 296 297 298 298 296 294 293 294 293 291 285 281 281 280 277
294 290 270 262 265 283 286 289 297 295 297 301 306 310 311 314 316 315 315 312 307 307 306 303 300 300 300 300 296 295 294 293 292 293 293 291 290 289 286 284 276 275 275
297 293 279 256 272 270 281 290 290 293 294 295 299 303 306 308 310 310 309 305 304 306 307 308 308 305 300 296 295 294 290 289 290 288 289 289 287 285 282 279 277 274 269
294 292 287 279 275 274 275 279 284 286 286 291 295 298 299 302 305 305 304 306 306 310 312 313 312 310 310 306 303 297 287 287 286 285 283 282 282 281 278 278 275 271 270
294 293 289 286 282 279 279 285 287 287 290 289 290 290 294 298 300 299 299 300 300 302 305 310 313 312 313 312 314 306 299 290 288 290 291 280 278 280 279 276 272 269 265
289 285 284 282 282 284 287 289 285 284 282 284 288 291 293 294 293 291 290 292 295 297 300 301 299 298 298 298 301 299 293 291 289 287 289 291 297 287 264 262 264 268 269
286 285 281 281 280 281 282 281 281 281 283 286 288 290 290 290 290 289 290 293 294 296 296 296 295 294 294 295 295 292 289 288 285 285 287 288 288 289 296 300 264 252 259
277 275 277 278 277 276 276 277 278 281 283 286 288 289 289 288 289 290 291 292 291 292 292 292 293 293 294 293 293 292 289 286 284 283 282 282 284 287 289 290 297 285 264
270 270 269 273 279 282 280 279 280 282 288 290 291 292 293 294 294 294 293 293 293 294 295 294 294 293 294 294 292 288 285 285 284 283 284 282 280 284 287 295 292 293 301
267 269 271 276 279 278 278 280 282 285 287 289 290 289 289 289 290 291 291 291 292 292 292 292 292 293 292 291 290 289 285 282 281 279 281 282 283 282 283 284 279 281 283
268 270 274 278 280 280 281 281 282 284 286 289 289 288 288 289 291 292 291 290 289 290 291 292 291 291 290 290 289 287 285 283 281 281 281 280 279 280 281 275 273 271 271
267 268 273 275 278 281 283 285 284 283 282 281 281 283 286 288 289 291 290 290 290 289 289 289 289 289 288 288 288 289 287 284 283 279 275 276 278 277 274 274 269 262 263
265 269 272 275 278 281 281 280 280 279 278 278 279 279 280 281 285 288 288 287 286 286 286 287 288 288 286 285 285 285 284 284 282 279 279 277 273 271 271 270 265 263 253
269 274 277 279 279 279 277 280 285 285 281 279 279 281 284 287 290 291 290 289 289 288 288 289 290 291 289 287 288 287 286 285 282 282 279 276 275 273 266 262 263 260 255
272 274 277 278 278 279 285 286 284 283 284 284 283 286 289 291 292 291 291 293 293 293 293 292 290 289 290 290 293 293 291 291 289 283 281 276 275 272 271 262 256 258 259
278 279 282 283 285 286 286 287 288 290 291 291 292 290 290 290 289 290 291 292 291 291 292 293 297 298 298 300 302 300 296 292 291 286 281 276 274 273 270 267 258 252 252
278 280 283 284 286 287 287 288 288 289 291 290 289 288 288 288 289 290 291 291 292 293 294 294 294 294 297 299 299 299 294 283 275 268 268 269 264 263 263 262 262 254 249
277 280 280 281 283 284 284 285 287 286 285 285 284 283 283 286 289 290 292 293 296 296 297 297 296 294 297 296 294 289 284 280 270 262 262 264 262 260 257 255 255 256 248
278 279 280 280 281 281 281 282 281 281 281 282 282 284 286 287 290 290 293 296 297 297 295 293 289 289 289 287 286 286 284 281 278 274 277 276 271 268 264 258 254 249 248
280 280 279 280 279 279 279 279 279 281 283 284 285 287 288 289 290 291 293 294 294 295 293 284 280 281 284 281 278 275 276 276 277 279 275 271 268 267 264 261 259 255 248
279 280 280 280 280 280 280 280 281 283 284 284 286 286 288 290 291 292 291 288 290 289 296 292 286 281 283 273 273 272 268 270 271 274 272 270 268 263 264 260 256 256 254
276 277 278 278 278 279 281 282 284 283 282 282 283 285 287 288 288 287 286 288 291 293 292 288 288 281 278 274 278 278 274 271 271 270 268 267 266 267 266 260 255 254 253
276 276 275 275 278 280 281 281 279 278 280 282 282 284 286 285 290 291 293 293 289 290 291 289 290 284 275 278 275 275 275 278 270 265 257 261 265 268 269 275 271 259 253
Height
5877 5876 5875 5873 5873 5872 5874 5872 5872 5872 5871 5871 5871 5870 5869 5868 5867 5867 5866 5865 5864 5864 5863 5862 5862 5862 5861 5861 5859 5858 5857 5857 5856 5856 5855 5854 5854 5854 5853 5852 5851 5850 5849
5874 5873 5873 5872 5872 5871 5871 5870 5869 5870 5869 5869 5869 5868 5867 5867 5866 5865 5864 5864 5862 5862 5861 5860 5859 5859 5858 5857 5856 5856 5855 5855 5855 5854 5854 5853 5852 5851 5850 5849 5849 5849 5848
5872 5870 5869 5868 5869 5869 5869 5868 5868 5868 5868 5867 5867 5866 5865 5864 5863 5863 5862 5860 5859 5858 5857 5857 5857 5857 5855 5855 5854 5853 5853 5853 5853 5853 5852 5851 5850 5849 5848 5847 5847 5847 5846
5869 5868 5866 5866 5866 5864 5865 5864 5866 5866 5865 5865 5864 5863 5863 5862 5861 5860 5859 5858 5857 5856 5855 5854 5853 5854 5853 5853 5852 5851 5850 5850 5850 5849 5849 5848 5847 5846 5846 5845 5845 5844 5844
5866 5864 5863 5863 5862 5860 5861 5862 5862 5862 5863 5862 5861 5860 5860 5859 5858 5857 5856 5855 5854 5853 5853 5852 5851 5850 5850 5850 5850 5849 5848 5847 5846 5845 5845 5844 5844 5844 5843 5843 5843 5842 5841
5863 5862 5861 5861 5859 5859 5858 5859 5859 5859 5859 5858 5857 5856 5856 5855 5854 5854 5853 5852 5851 5850 5849 5849 5848 5848 5847 5847 5846 5846 5845 5843 5842 5841 5841 5841 5841 5840 5841 5840 5840 5839 5838
5859 5859 5858 5857 5856 5856 5856 5856 5855 5856 5856 5855 5854 5853 5851 5850 5850 5849 5848 5848 5847 5847 5846 5846 5845 5844 5844 5844 5843 5843 5841 5840 5839 5838 5836 5837 5837 5836 5836 5837 5837 5836 5835
5856 5855 5854 5854 5854 5853 5853 5853 5853 5853 5853 5852 5851 5850 5848 5847 5846 5846 5845 5844 5843 5843 5843 5842 5841 5841 5841 5840 5840 5839 5838 5837 5835 5835 5833 5833 5833 5833 5833 5832 5832 5831 5830
5853 5852 5850 5850 5850 5850 5850 5850 5849 5849 5849 5848 5848 5846 5845 5844 5844 5843 5842 5841 5840 5838 5838 5838 5837 5836 5835 5835 5835 5835 5834 5833 5832 5831 5830 5829 5828 5827 5825 5825 5826 5827 5826
5849 5849 5847 5846 5845 5845 5845 5845 5845 5845 5845 5844 5843 5843 5842 5841 5841 5840 5839 5838 5837 5835 5834 5833 5832 5830 5829 5828 5828 5828 5829 5827 5826 5826 5826 5825 5824 5822 5820 5819 5816 5818 5821
5844 5844 5843 5842 5841 5841 5841 5841 5841 5840 5840 5840 5839 5838 5838 5837 5837 5836 5835 5834 5832 5831 5829 5828 5826 5824 5824 5823 5822 5820 5819 5820 5818 5818 5819 5819 5819 5818 5816 5817 5814 5810 5814
5841 5840 5839 5839 5838 5838 5838 5837 5836 5836 5835 5836 5835 5833 5832 5831 5831 5830 5828 5827 5826 5825 5823 5821 5820 5817 5815 5815 5814 5814 5812 5811 5809 5809 5809 5810 5810 5810 5811 5809 5809 5807 5806
5836 5836 5835 5835 5834 5834 5833 5833 5832 5831 5830 5829 5829 5828 5826 5825 5824 5824 5822 5821 5820 5818 5817 5815 5813 5811 5809 5807 5806 5806 5805 5804 5803 5801 5800 5800 5800 5801 5803 5804 5803 5801 5800
5832 5831 5831 5830 5829 5829 5828 5828 5827 5826 5825 5824 5822 5822 5821 5819 5818 5818 5816 5815 5814 5812 5811 5809 5807 5805 5803 5801 5799 5798 5796 5796 5795 5793 5793 5791 5791 5792 5794 5794 5795 5793 5793
5826 5825 5825 5824 5823 5822 5822 5821 5821 5820 5819 5818 5816 5815 5814 5812 5811 5810 5809 5808 5806 5804 5803 5801 5799 5797 5795 5793 5791 5790 5789 5788 5787 5787 5784 5783 5782 5783 5784 5784 5784 5785 5784
5821 5821 5820 5819 5818 5817 5817 5816 5815 5814 5813 5811 5810 5809 5808 5807 5806 5804 5802 5800 5798 5796 5794 5792 5790 5789 5787 5785 5783 5780 5779 5778 5778 5776 5777 5776 5773 5773 5775 5775 5775 5775 5776
5814 5814 5814 5813 5813 5812 5811 5810 5808 5807 5806 5804 5802 5801 5800 5798 5796 5793 5791 5790 5788 5786 5785 5783 5780 5779 5776 5774 5773 5771 5769 5768 5766 5766 5765 5765 5766 5765 5766 5766 5766 5766 5766
5806 5805 5806 5805 5804 5803 5801 5800 5799 5798 5796 5795 5793 5791 5790 5787 5785 5783 5780 5778 5776 5774 5771 5769 5767 5765 5763 5760 5758 5756 5755 5754 5754 5754 5753 5751 5753 5755 5756 5758 5755 5757 5758
5798 5798 5798 5797 5796 5794 5792 5790 5788 5786 5784 5782 5780 5780 5778 5775 5774 5771 5769 5766 5764 5760 5758 5755 5751 5749 5747 5745 5743 5741 5739 5738 5738 5736 5736 5736 5737 5743 5744 5745 5745 5744 5748
5790 5790 5789 5788 5786 5784 5782 5780 5778 5776 5774 5772 5770 5768 5765 5763 5761 5759 5756 5753 5751 5748 5745 5742 5739 5737 5735 5733 5729 5726 5725 5724 5723 5721 5718 5720 5721 5723 5727 5729 5731 5732 5734
5782 5781 5779 5777 5775 5772 5771 5770 5767 5765 5763 5761 5759 5757 5754 5751 5748 5746 5743 5740 5738 5735 5731 5728 5725 5722 5720 5717 5715 5715 5711 5710 5708 5705 5704 5702 5703 5705 5707 5711 5714 5718 5720
5772 5770 5768 5766 5765 5763 5760 5757 5754 5752 5750 5748 5745 5742 5739 5735 5733 5730 5728 5726 5723 5720 5717 5714 5711 5708 5707 5705 5704 5702 5699 5694 5697 5691 5689 5688 5688 5689 5691 5692 5696 5700 5704
5761 5760 5758 5756 5753 5750 5747 5743 5741 5738 5736 5733 5730 5727 5725 5722 5718 5715 5714 5712 5710 5708 5705 5703 5700 5696 5694 5692 5691 5690 5687 5684 5681 5678 5676 5675 5674 5675 5676 5677 5679 5683 5687
5749 5747 5746 5744 5741 5737 5733 5731 5728 5725 5723 5719 5717 5714 5712 5710 5707 5704 5701 5699 5697 5695 5693 5691 5689 5686 5683 5679 5677 5676 5673 5672 5670 5667 5662 5662 5663 5661 5663 5664 5665 5667 5672
5735 5733 5731 5729 5726 5723 5722 5718 5715 5712 5709 5706 5704 5701 5698 5696 5693 5691 5689 5687 5686 5683 5680 5677 5675 5674 5671 5668 5663 5661 5660 5659 5658 5656 5652 5650 5649 5650 5651 5652 5652 5654 5656
5720 5718 5716 5713 5711 5709 5707 5705 5701 5698 5695 5693 5690 5687 5685 5683 5680 5678 5676 5675 5672 5668 5665 5662 5659 5657 5656 5653 5649 5646 5645 5645 5644 5643 5641 5640 5638 5638 5639 5640 5640 5641 5642